Marshalltown, IA

3:15 AM CDT on May 26, 2018 (GMT -0500)
Marshalltown Municipal

Weather History for KMIW - November, 2013

Change the Weather History Date:

Friday, November 1, 2013

  Actual Average Record
Temperature  
Mean Temperature 48 °F 44 °F  
Max Temperature 54 °F 54 °F 73 °F (2000)
Min Temperature 41 °F 33 °F 18 °F (1996)
Degree Days  
Heating Degree Days 17 21  
Month to date heating degree days 17 21  
Since 1 July heating degree days 566 654  
Cooling Degree Days 0 0  
Month to date cooling degree days 0 0  
Year to date cooling degree days 872 728  
Moisture  
Dew Point 39 °F    
Average Humidity 70    
Maximum Humidity 89    
Minimum Humidity 50    
Precipitation  
Precipitation T in 0.11 in 1.23 in (2004)
Month to date precipitation T 0.11  
Sea Level Pressure  
Sea Level Pressure 29.67 in    
Wind  
Wind Speed 11 mph (WNW)    
Max Wind Speed 21 mph    
Max Gust Speed 25 mph    
Visibility 10 miles    
Events      
T = Trace of Precipitation, MM = Missing Value Source: NWS Daily Summary

Daily Weather History Graph

Daily Weather History Graph

Search for Another Location

Airport or City:

Astronomy

Nov. 01, 2013 Rise Set
Actual Time 7:44 AM CDT 6:05 PM CDT
Civil Twilight 7:15 AM CDT 6:34 PM CDT
Nautical Twilight 6:42 AM CDT 7:07 PM CDT
Astronomical Twilight 6:10 AM CDT 7:39 PM CDT
Moon 5:35 AM CDT (11/1) 4:59 PM CDT (11/1)
Length of Visible Light 11h 18m
Length of Day
10h 20m
Waning Crescent, 4% of the Moon is Illuminated
Nov 1
Waning Crescent
Nov 3
New
Nov 9
First Quarter
Nov 17
Full
Nov 25
Last Quarter

Hourly Weather History & Observations

Time (CDT) Temp. Windchill Dew Point Humidity Pressure Visibility Wind Dir Wind Speed Gust Speed Precip Events Conditions
12:53 AM 42.1 °F 37.1 °F 39.0 °F 89% 29.51 in 10.0 mi WSW 8.1 mph - N/A   Overcast
1:53 AM 42.1 °F 37.7 °F 39.0 °F 89% 29.52 in 10.0 mi West 6.9 mph - N/A   Overcast
2:53 AM 42.1 °F 37.7 °F 39.0 °F 89% 29.52 in 10.0 mi WSW 6.9 mph - N/A   Overcast
3:53 AM 43.0 °F 38.2 °F 39.9 °F 89% 29.54 in 10.0 mi West 8.1 mph - N/A   Overcast
4:53 AM 43.0 °F 37.7 °F 39.0 °F 86% 29.55 in 10.0 mi West 9.2 mph - N/A   Mostly Cloudy
5:53 AM 42.1 °F 35.7 °F 39.0 °F 89% 29.58 in 10.0 mi WNW 11.5 mph - N/A   Mostly Cloudy
6:53 AM 43.0 °F 37.7 °F 39.0 °F 86% 29.60 in 10.0 mi WNW 9.2 mph - N/A   Overcast
7:30 AM 42.8 °F 36.2 °F 39.2 °F 87% 29.59 in 10.0 mi WNW 12.7 mph - N/A   Overcast
7:53 AM 43.0 °F 37.2 °F 39.0 °F 86% 29.61 in 10.0 mi West 10.4 mph - N/A   Overcast
8:35 AM 42.8 °F 38.0 °F 39.2 °F 87% 29.62 in 10.0 mi West 8.1 mph - N/A   Overcast
8:53 AM 43.0 °F 38.2 °F 39.0 °F 86% 29.65 in 10.0 mi West 8.1 mph - N/A   Overcast
9:53 AM 44.1 °F 39.0 °F 39.0 °F 82% 29.66 in 10.0 mi WNW 9.2 mph - N/A   Overcast
10:53 AM 44.1 °F 37.7 °F 39.9 °F 85% 29.68 in 10.0 mi West 12.7 mph - 0.00 in   Overcast
11:53 AM 45.0 °F 38.2 °F 39.0 °F 80% 29.69 in 10.0 mi WNW 15.0 mph - N/A   Overcast
12:53 PM 48.0 °F - 39.0 °F 71% 29.70 in 10.0 mi WNW 15.0 mph - N/A   Mostly Cloudy
1:53 PM 51.1 °F - 39.0 °F 63% 29.70 in 10.0 mi West 16.1 mph 23.0 mph N/A   Partly Cloudy
2:53 PM 53.1 °F - 37.9 °F 57% 29.70 in 10.0 mi WNW 16.1 mph 24.2 mph N/A   Mostly Cloudy
3:53 PM 53.1 °F - 36.0 °F 52% 29.71 in 10.0 mi WNW 19.6 mph - N/A   Partly Cloudy
4:53 PM 52.0 °F - 39.0 °F 61% 29.72 in 10.0 mi WNW 10.4 mph - N/A   Scattered Clouds
5:53 PM 51.1 °F - 39.9 °F 66% 29.74 in 10.0 mi WNW 9.2 mph - N/A   Partly Cloudy
6:53 PM 46.0 °F 44.8 °F 39.0 °F 76% 29.75 in 10.0 mi West 3.5 mph - N/A   Mostly Cloudy
7:53 PM 45.0 °F 41.2 °F 39.0 °F 80% 29.77 in 10.0 mi West 6.9 mph - N/A   Scattered Clouds
8:53 PM 44.1 °F 40.1 °F 39.0 °F 82% 29.79 in 10.0 mi WNW 6.9 mph - N/A   Overcast
9:53 PM 45.0 °F 40.6 °F 39.9 °F 82% 29.81 in 10.0 mi WNW 8.1 mph - N/A   Overcast
10:53 PM 45.0 °F 39.7 °F 39.0 °F 80% 29.84 in 10.0 mi WNW 10.4 mph - N/A   Overcast
11:53 PM 43.0 °F 36.4 °F 37.9 °F 82% 29.86 in 10.0 mi NW 12.7 mph - N/A   Mostly Cloudy